sat.trackr.live / text

‹ back to catalog

STARLINK-3231

NORAD 49744 · 2021-115W

PAYLOAD ACTIVE UNKNOWN

§ Identity

Operator
Country
US
Launch date
2021-12-02
Launch site
AFETR
Launch vehicle
Mass (kg)
RCS (m²)

Purposes: comms

External: N2YO · Heavens-Above · Gunter

§ Orbital elements

Epoch: 2026-05-25T01:39:45.258912Z

Period
95.44 min
Inclination
53.2129°
Eccentricity
0.0001024
Mean motion
15.08836764 rev/d
Perigee alt
539.0 km
Apogee alt
540.5 km
Semi-major
6,917.9 km
B*
-3.0342e-5
RAAN
166.1358°
Arg perigee
57.4828°
Mean anomaly
302.6263°
Rev number
24,706

§ Raw data

STARLINK-32311 49744U 21115W   26145.06927383 -.00000771  00000+0 -30342-4 0  99962 49744  53.2129 166.1358 0001024  57.4828 302.6263 15.08836764247062

JSON: /api/v1/satellites/49744 · /tle

For live sub-satellite position, see the globe view (requires WebGL).

§ Visibility from observer

Set your observer location to see the next 7 days of passes ≥ 10°. The values pass through the URL so the page stays shareable.

No JS? Fill the form by hand. The geolocation button needs JavaScript.